Location: Burland Observatory
(39.4088°N, 105.4217°W)
Time: 07:11:21
(UTC-07:00)

Explorer 7 - Pass Details

Date: 06 December 2019
Orbit: 485 x 679 km, 50.3° (Epoch: 17 January)

Event Time Altitude Azimuth Distance (km) Brightness Sun altitude
Rises 18:52:32 0° 273° (W) 3,020 11.9 -25.3°
Reaches altitude 10° 18:55:12 10° 285° (WNW) 2,111 10.6 -25.8°
Maximum altitude 18:59:25 28° 344° (NNW) 1,259 8.6 -26.6°
Enters shadow 18:59:28 28° 345° (NNW) 1,259 8.6 -26.6°
